Location: Biltmore Gardens
(41.6070°N, 83.4666°W)
Time: 14:55:46
(UTC+00:00)

Cosmos 2154 Rocket - Pass Details

Date: 14 July 2020
Orbit: 967 x 995 km, 82.9° (Epoch: 12 August)

Event Time Altitude Azimuth Distance (km) Brightness Sun altitude
Exits shadow 02:40:49 19° 156° (SSE) 2,148 5.2 -14.4°
Maximum altitude 02:45:05 47° 90° (E) 1,260 4.3 -15.0°
Drops below altitude 10° 02:51:00 10° 19° (NNE) 2,728 6.7 -15.7°
Sets 02:53:37 0° 14° (NNE) 3,684 7.6 -16.0°
